www.pogodaiklimat.ru

АРХИВ ПОГОДЫ в Туапсе

Время (UTC), дата Ветер
(напр.,м/с)
 
Видим.   Явления Облачность Т
(С)
Тd
(С)
f
(%)
Тe
(С)
Тes
(С)
Комфортность P
(гПа)
Po
(гПа)
Тmin
(С)
Tmax
(С)
R
(мм)
S
(см)
03 11.01 СВ 2 10 км 4/0
[Ci fib]
+3.9 -3.4 59 +2 +2 по сезону 1019.9 1012.2 +3.5
06 11.01 СВ 2 20 км 10/0
[Ac As Ci fib]
+3.5 -3.4 61 +1 +1 по сезону 1020.9 1013.2 +3.4
09 11.01 ЮВ 2 20 км 8/0
[Ac trans Ci fib]
+10.8 -2.7 39 +10 +13 тепло 1022.3 1014.8
12 11.01 ЮВ 5
{10}
20 км 10/3 1000 м
[Sc Ac trans Ci fib]
+10.2 +2.2 58 +7 +8 тепло 1023.2 1015.7
15 11.01 В 2
{11}
10 км в посл. час ливневой дождь 10/5 1000 м
[Cb cap Ac trans Ci fib]
+8.2 +3.7 73 +6 +6 тепло 1025.1 1017.5 +11.1 1
18 11.01 ЮЗ 3 10 км {ливн. осадки} 9/3 1000 м
[Cb cap Ac trans Ci fib]
+8.6 +5.8 83 +6 +6 тепло 1026.0 1018.4
21 11.01 ЮВ 3 10 км 8/8 1000 м
[Sc]
+8.3 +4.4 76 +6 +6 тепло 1025.8 1018.2
00 12.01 ЮВ 4
{10}
10 км 3/0
[Ac trans]
+9.4 +2.3 61 +7 +7 тепло 1024.4 1016.9
03 12.01 ЮВ 5-11
{11}
10 км 5/0
[Ac trans Ci fib]
+10.0 +0.1 50 +7 +7 тепло 1021.6 1014.0 +7.9
06 12.01 ЮВ 5
{11}
20 км 4/3 1000 м
[Sc Ci fib]
+10.6 +0.4 49 +8 +8 тепло 1018.3 1010.8
09 12.01 ЮВ 5
{11}
20 км 8/3 1000 м
[Sc Ci]
+11.2 +3.4 59 +9 +10 тепло 1016.0 1008.6
12 12.01 ЮВ 5
{12}
20 км 9/4 1000 м
[Sc Ac trans Ci]
+10.3 +4.1 65 +8 +8 тепло 1013.4 1005.9
15 12.01 ЮВ 4 10 км 10/6 1000 м
[Sc Ac trans Ci]
+10.0 +3.9 66 +8 +8 тепло 1012.7 1005.3 +11.9
18 12.01 ЮЗ 9-17
{17}
10 км 10/6 1000 м
[Sc Ac trans Ci]
+9.0 +4.7 74 +4 +4 по сезону 1013.2 1005.7
21 12.01 ЮЗ 6-11
{18}
10 км в посл. час ливневой дождь 10/8 1000 м
[Cb cap Ac trans Ci]
+5.7 +1.1 72 +1 +1 по сезону 1016.0 1008.4
00 13.01 ЮЗ 5
{13}
10 км {ливн. осадки} 10/6 1000 м
[Cb cap Ac trans Ci]
+5.1 -2.3 59 +1 +1 по сезону 1018.2 1010.6
03 13.01 ЮЗ 4
{10}
10 км 10/4 1000 м
[Cb cap Ac trans Ci]
+5.2 -2.2 59 +2 +2 по сезону 1017.9 1010.3 +4.6 2
06 13.01 ЮЗ 4
{13}
20 км {ливн. осадки} 10/8 1000 м
[Cb cap Ac trans Ci fib]
+5.1 -2.6 57 +2 +2 по сезону 1018.7 1011.1 +3.3
09 13.01 штиль 0
{10}
10 км слабый ливневой дождь 10/8 1000 м
[Cb cap Ac trans Ci fib]
+4.5 0.0 73 +4 +4 по сезону 1019.8 1012.1
12 13.01 ЮЗ 2 20 км {ливн. осадки} 10/4 1000 м
[Cb cap Ac trans Ci fib]
+5.1 -0.4 68 +3 +3 по сезону 1020.2 1012.5
15 13.01 С 1
{10}
10 км в посл. час ливневой дождь 10/6 1000 м
[Cb cap Ac trans Ci fib]
+3.0 +0.3 82 +2 +2 по сезону 1021.8 1014.1 +6.1 0.8
18 13.01 В 1 10 км {ливн. осадки} 10/4 1000 м
[Cb cap Ac trans Ci fib]
+3.4 +0.2 80 +2 +2 по сезону 1022.3 1014.6
21 13.01 В 4 10 км 10/6 1000 м
[Cb cap Ac trans Ci fib]
+4.2 0.0 74 0 0 по сезону 1021.6 1013.9
00 14.01 В 3 10 км 3/3 1000 м
[Sc]
+4.5 -1.7 64 +1 +1 по сезону 1020.5 1012.8
03 14.01 СВ 2 10 км 10/0
[Ac trans Ci fib]
+2.7 -1.6 73 -0 -0 по сезону 1020.1 1012.4 +2.7 0.1
06 14.01 СВ 2 20 км 5/3 1000 м
[Cu Sc Ac trans Ci sp]
+3.4 -2.6 65 +1 +1 по сезону 1018.7 1011.0 +2.0
09 14.01 ЮВ 2 20 км 8/3 1000 м
[Sc Ac trans Ci sp]
+8.2 -1.6 50 +7 +9 тепло 1016.6 1009.1
12 14.01 штиль 0 20 км 8/3 1000 м
[Sc Ac trans Ci sp]
+7.3 -2.8 49 +7 +8 тепло 1014.9 1007.3
15 14.01 СВ 2 10 км 8/1 1000 м
[Cu med, cong Ac trans Ci sp]
+6.5 -4.1 47 +5 +5 по сезону 1014.5 1006.9 +10.4
18 14.01 С 2 10 км 8/0
[Ac trans Ci sp]
+5.6 -5.3 45 +4 +4 по сезону 1013.9 1006.3
21 14.01 СВ 1 10 км 10/0
[Ac trans Ci sp]
+4.4 -3.7 56 +4 +4 по сезону 1013.9 1006.2
00 15.01 СВ 2 10 км 10/0
[Ci fib]
+3.5 -2.9 63 +1 +1 по сезону 1014.3 1006.7
03 15.01 СВ 2 10 км 10/0
[Cs]
+4.4 -3.4 57 +2 +2 по сезону 1014.0 1006.4 +3.5
06 15.01 В 3 20 км 9/3 1000 м
[Sc Cs]
+7.3 -2.4 50 +5 +5 тепло 1015.1 1007.6 +3.4
09 15.01 ЮВ 6-11
{12}
20 км 8/0
[Ci]
+9.9 -0.2 49 +7 +8 тепло 1015.7 1008.2
12 15.01 ЮВ 3
{11}
20 км 6/3 1000 м
[Sc Ci fib]
+10.4 +3.0 60 +9 +10 тепло 1016.2 1008.7
15 15.01 ЮВ 2 10 км 4/3 1000 м
[Sc Ci fib]
+8.5 +2.5 66 +7 +7 тепло 1017.1 1009.6 +10.9
18 15.01 В 2 10 км ясно +7.4 +1.1 64 +6 +6 тепло 1017.9 1010.3
21 15.01 В 1 10 км 3/0
[Ci fib]
+7.3 -3.1 48 +7 +7 тепло 1018.8 1011.2
00 16.01 В 2 10 км 10/0
[Ac trans Ci fib]
+7.4 -3.2 47 +6 +6 тепло 1018.8 1011.2
03 16.01 ЮВ 6-11
{11}
4000 м слабый ливневой дождь 10/6 1000 м
[Cb cap Ac trans Ci fib]
+9.0 +4.5 73 +5 +5 тепло 1020.2 1012.7 +6.7 0.0
06 16.01 ЮВ 4
{12}
10 км слабый ливневой дождь 10/8 600 м
[Cb cap Ac und]
+6.9 +2.1 71 +4 +4 тепло 1021.8 1014.2
09 16.01 ЮВ 3
{11}
20 км {ливн. осадки} 9/8 1000 м
[Cb cap Ac As]
+8.3 +1.4 62 +6 +6 тепло 1022.1 1014.5
12 16.01 ЮВ 2 20 км {ливн. осадки} 8/6 1000 м
[Cb cap Ac As]
+9.5 +3.0 64 +8 +9 тепло 1021.5 1013.9
15 16.01 С 2 10 км 8/6 1000 м
[Cb cap Ac As]
+8.2 +2.3 66 +7 +7 тепло 1020.9 1013.3 +9.8 3
18 16.01 СВ 2 10 км {ливн. осадки} 10/8 1000 м
[Cb cap Ac und]
+8.7 -0.1 54 +7 +7 тепло 1020.2 1012.6
21 16.01 С 1 10 км 10/3 1000 м
[Sc Ci]
+8.8 -0.5 52 +9 +9 тепло 1020.2 1012.7
00 17.01 СВ 4 10 км 10/4 1000 м
[Sc Ci]
+9.1 -1.3 48 +7 +7 тепло 1020.1 1012.6
03 17.01 СВ 2 10 км 10/4 1000 м
[Sc Ci]
+9.1 -1.3 48 +8 +8 тепло 1020.1 1012.5 +7.3
06 17.01 штиль 0 20 км {ливн. осадки} 10/6 1000 м
[Cb cap Ac trans Ci fib]
+8.2 +0.5 58 +8 +8 тепло 1021.2 1013.6
09 17.01 СВ 2 20 км 10/4 1000 м
[Cb cap Ac trans Ci fib]
+8.8 +1.2 59 +7 +9 тепло 1021.7 1014.1
12 17.01 СВ 2 20 км 10/4 1000 м
[Sc Ac trans Ci fib]
+10.5 +1.2 53 +10 +10 тепло 1021.3 1013.8
15 17.01 СВ 1 10 км 10/3 1000 м
[Sc Ac trans Ci fib]
+9.5 +0.2 52 +9 +9 тепло 1021.8 1014.2 +10.5
18 17.01 штиль 0 10 км 8/6 1000 м
[Sc Ac trans Ci]
+8.8 -0.4 52 +9 +9 тепло 1022.0 1014.4
21 17.01 С 1 10 км 3/0
[Ci fib]
+7.7 -0.8 55 +7 +7 тепло 1021.4 1013.8
00 18.01 С 2 10 км 10/3 1000 м
[Sc Ac trans Ci]
+8.3 -1.8 49 +7 +7 тепло 1021.8 1014.3

 

Местоположение метеостанции Туапсе (Краснодарский край, Россия): широта 44.10 долгота 39.07 высота над уровнем моря 62 м.

В архиве по умолчанию представлена погода в Туапсе за последнюю неделю. Архивные данные за месяц целиком и за предыдущие месяцы, начиная с января 2011 года, Вы можете получить, выбрав интересующий диапазон дат из раскрывающегося списка и нажав кнопку "Ввод!".

Внимание! Время в таблицах - всемирное. Для получения местного времени необходимо прибавить поправку, которая в Туапсе равна 3 ч.

Ветер - указаны скорость ветра в м/с - средняя за 10 мин, порывы в срок и между сроками (в фигурных скобках) и направление, откуда дует ветер: С - северный, СВ - северо-восточный, В - восточный, ЮВ - юго-восточный, Ю - южный, ЮЗ - юго-западный, З - западный, СЗ - северо-западный.
Видимость - горизонтальная дальность видимости в метрах или километрах. При видимости от 1 до 10 км при отсутствии осадков обычно наблюдается дымка, при ухудшении видимости до 1 км и менее - туман. В сухую погоду видимость может ухудшаться дымом, пылью или мглою.
Явления - указаны атмосферные явления, наблюдавшиеся в срок или в последний час перед сроком; фигурными скобками обозначены явления, наблюдавшиеся между сроками (за 1-3 часа до срока); квадратными скобками обозначены град или гололедные отложения с указанием их диаметра в мм.
Облачность - указаны через наклонную черту общая и нижняя облачность в баллах и высота нижней границы облаков в метрах; квадратными скобками обозначены формы облаков: Ci - перистые, Cs - перисто-слоистые, Cc - перисто-кучевые, Ac - высококучевые, As - высокослоистые, Sc - слоисто-кучевые, Ns - слоисто-дождевые, Cu - кучевые, Cb - кучево-дождевые. Подробнее классификацию облаков см. в Атласе облаков (PDF).
T - Температура воздуха - температура, измеренная на высоте 2 м над землей.
Td - Температура точки росы - температура, при понижении до которой содержащийся в воздухе водяной пар достигнет насыщения.
f - Относительная влажность воздуха - влажноcть воздуха, измеренная на высоте 2 м над землей.
Te - Эффективная температура - температура, которую ощущает одетый по сезону человек в тени. Характеристика душности погоды. При расчете учитывается влияние влажности воздуха и скорости ветра на теплоощущения человека.
Tes - Эффективная температура на солнце - температура, которую ощущает человек, с поправкой на солнечный нагрев. Характеристика знойности погоды. Зависит от высоты солнца над горизонтом, облачности и скорости ветра. Ночью, в пасмурную погоду, а также при ветре 12 м/с и более поправка равна нулю.
P - Атмосферное давление - приведенное к уровню моря атмосферное давление.
Po - Атмосферное давление - измеренное на уровне метеостанции атмосферное давление.
Tmin - Минимальная температура - минимум температуры воздуха на высоте 2 м над землей.
Tmax - Максимальная температура - максимум температуры воздуха на высоте 2 м над землей.
R - Количество осадков - Количество выпавших осадков, мм. При наведении курсора мыши на число - период времени, за который выпало указанное количество осадков.
S - Снежный покров - Высота снежного покрова, см. При наведении курсора мыши на число - состояние снежного покрова и степень покрытия местности в баллах.